| time (UTC) | temp C | wind direction | speed KPH | gust KPH | rain 1hr cm | rain 24hr cm | rain mn cm | humidity % | barometer mb |
| 20260510081704 | 9 | 138 | 0.0 | 4.8 | 0.00 | 0.71 | 0.00 | 84 | 1011.2 |
| 20260510081204 | 9 | 94 | 0.0 | 4.8 | 0.00 | 0.71 | 0.00 | 85 | 1011.2 |
| 20260510080704 | 10 | 81 | 0.0 | 4.8 | 0.00 | 0.71 | 0.00 | 85 | 1010.8 |
| 20260510080203 | 10 | 107 | 0.0 | 4.8 | 0.00 | 0.71 | 0.00 | 85 | 1010.8 |
| 20260510075704 | 10 | 61 | 0.0 | 4.8 | 0.00 | 0.71 | 0.00 | 84 | 1010.8 |
| 20260510075204 | 10 | 42 | 3.2 | 4.8 | 0.00 | 0.71 | 0.00 | 84 | 1010.8 |
| 20260510074704 | 10 | 45 | 4.8 | 4.8 | 0.00 | 0.71 | 0.00 | 84 | 1010.8 |
| 20260510074204 | 10 | 20 | 3.2 | 4.8 | 0.00 | 0.71 | 0.00 | 85 | 1010.5 |
| 20260510073703 | 10 | 24 | 3.2 | 8.0 | 0.00 | 0.71 | 0.00 | 85 | 1010.5 |
| 20260510073203 | 10 | 51 | 3.2 | 8.0 | 0.00 | 0.71 | 0.00 | 86 | 1010.5 |
| 20260510072704 | 10 | 18 | 3.2 | 8.0 | 0.00 | 0.71 | 0.00 | 86 | 1010.5 |
| 20260510072204 | 10 | 67 | 0.0 | 14.5 | 0.00 | 0.71 | 0.00 | 86 | 1010.5 |
| 20260510071704 | 10 | 49 | 0.0 | 14.5 | 0.00 | 0.74 | 0.00 | 85 | 1010.5 |
| 20260510071204 | 10 | 63 | 3.2 | 14.5 | 0.00 | 0.74 | 0.00 | 85 | 1010.5 |
| 20260510070704 | 10 | 28 | 4.8 | 9.7 | 0.00 | 0.74 | 0.00 | 85 | 1010.2 |
| 20260510070204 | 10 | 26 | 4.8 | 8.0 | 0.00 | 0.74 | 0.00 | 85 | 1010.2 |
| 20260510065704 | 10 | 19 | 4.8 | 9.7 | 0.00 | 0.74 | 0.00 | 85 | 1010.2 |
| 20260510063704 | 11 | 11 | 8.0 | 12.9 | 0.00 | 0.74 | 0.00 | 88 | 1010.2 |
| 20260510063204 | 11 | 0 | 9.7 | 12.9 | 0.00 | 0.74 | 0.00 | 89 | 1010.2 |
| 20260510062704 | 11 | 9 | 4.8 | 11.3 | 0.00 | 0.74 | 0.00 | 88 | 1010.2 |
| 20260510062204 | 11 | 329 | 4.8 | 11.3 | 0.00 | 0.74 | 0.00 | 88 | 1010.2 |
| 20260510061704 | 11 | 9 | 4.8 | 11.3 | 0.00 | 0.74 | 0.00 | 89 | 1010.2 |
| 20260510060704 | 11 | 354 | 4.8 | 14.5 | 0.00 | 0.74 | 0.00 | 89 | 1009.8 |
| 20260510060204 | 12 | 13 | 6.4 | 14.5 | 0.00 | 0.74 | 0.00 | 88 | 1009.8 |
| 20260510055704 | 12 | 5 | 8.0 | 14.5 | 0.00 | 0.74 | 0.00 | 88 | 1009.8 |
| 20260510055204 | 12 | 312 | 4.8 | 9.7 | 0.00 | 0.74 | 0.00 | 89 | 1009.8 |
| 20260510054704 | 12 | 61 | 3.2 | 11.3 | 0.00 | 0.74 | 0.00 | 89 | 1009.8 |
| 20260510054204 | 12 | 123 | 1.6 | 12.9 | 0.00 | 0.74 | 0.00 | 89 | 1009.8 |
| 20260510053704 | 13 | 337 | 4.8 | 12.9 | 0.00 | 0.74 | 0.00 | 89 | 1009.8 |
| 20260510053203 | 13 | 1 | 6.4 | 14.5 | 0.00 | 0.74 | 0.00 | 91 | 1009.5 |
| 20260510052704 | 13 | 334 | 6.4 | 14.5 | 0.00 | 0.74 | 0.00 | 91 | 1009.5 |
| 20260510052204 | 13 | 298 | 6.4 | 14.5 | 0.00 | 0.74 | 0.00 | 92 | 1009.5 |
| 20260510051704 | 13 | 325 | 4.8 | 12.9 | 0.00 | 0.74 | 0.00 | 93 | 1009.1 |
| 20260510051204 | 13 | 280 | 4.8 | 16.1 | 0.00 | 0.74 | 0.00 | 93 | 1009.1 |
| 20260510050704 | 13 | 253 | 1.6 | 16.1 | 0.00 | 0.74 | 0.00 | 94 | 1009.1 |
| 20260510050204 | 12 | 266 | 9.7 | 16.1 | 0.00 | 0.74 | 0.00 | 94 | 1008.8 |
| 20260510045703 | 12 | 322 | 8.0 | 12.9 | 0.00 | 0.74 | 0.00 | 93 | 1008.1 |
| 20260510045204 | 13 | 238 | 4.8 | 9.7 | 0.00 | 0.74 | 0.00 | 93 | 1007.8 |
| 20260510044704 | 12 | 216 | 4.8 | 9.7 | 0.00 | 0.74 | 0.00 | 93 | 1007.8 |
| 20260510044204 | 12 | 209 | 6.4 | 9.7 | 0.00 | 0.74 | 0.00 | 93 | 1007.8 |
| 20260510043204 | 12 | 123 | 0.0 | 0.0 | 0.00 | 0.76 | 0.00 | 92 | 1007.5 |
| 20260510041204 | 13 | 235 | 3.2 | 11.3 | 0.00 | 0.81 | 0.00 | 92 | 1007.5 |
| 20260510040704 | 13 | 273 | 8.0 | 11.3 | 0.00 | 0.81 | 0.00 | 92 | 1007.5 |
| 20260510040204 | 13 | 190 | 4.8 | 11.3 | 0.00 | 0.81 | 0.00 | 92 | 1007.8 |
| 20260510035704 | 13 | 321 | 4.8 | 11.3 | 0.00 | 0.81 | 0.81 | 92 | 1007.8 |
| 20260510035204 | 13 | 233 | 3.2 | 12.9 | 0.00 | 0.81 | 0.81 | 91 | 1007.8 |
| 20260510034703 | 13 | 253 | 4.8 | 12.9 | 0.00 | 0.84 | 0.81 | 90 | 1007.8 |
| 20260510033704 | 13 | 231 | 8.0 | 14.5 | 0.00 | 0.84 | 0.81 | 90 | 1007.8 |
| 20260510033204 | 13 | 251 | 9.7 | 14.5 | 0.00 | 0.84 | 0.81 | 90 | 1007.8 |
| 20260510032704 | 13 | 235 | 8.0 | 12.9 | 0.00 | 0.84 | 0.81 | 90 | 1007.8 |
| 20260510032204 | 13 | 250 | 8.0 | 14.5 | 0.00 | 0.84 | 0.81 | 92 | 1007.8 |
| 20260510031203 | 12 | 240 | 8.0 | 14.5 | 0.00 | 0.84 | 0.81 | 94 | 1007.5 |
| 20260510030703 | 12 | 291 | 0.0 | 8.0 | 0.00 | 0.84 | 0.81 | 94 | 1007.5 |
| 20260510030204 | 12 | 160 | 0.0 | 9.7 | 0.00 | 0.84 | 0.81 | 95 | 1007.5 |
| 20260510025704 | 12 | 231 | 0.0 | 12.9 | 0.00 | 0.84 | 0.81 | 95 | 1007.5 |
| 20260510025204 | 13 | 211 | 3.2 | 12.9 | 0.00 | 0.84 | 0.81 | 95 | 1007.8 |
| 20260510024705 | 13 | 235 | 9.7 | 14.5 | 0.00 | 0.84 | 0.81 | 96 | 1008.1 |
| 20260510023704 | 13 | 225 | 8.0 | 14.5 | 0.00 | 0.84 | 0.81 | 97 | 1008.1 |
| 20260510023204 | 12 | 183 | 4.8 | 11.3 | 0.00 | 0.84 | 0.81 | 97 | 1007.8 |
| 20260510022704 | 12 | 175 | 0.0 | 8.0 | 0.00 | 0.86 | 0.81 | 97 | 1007.5 |
| 20260510022204 | 12 | 259 | 3.2 | 8.0 | 0.00 | 0.86 | 0.81 | 98 | 1007.1 |
| 20260510021704 | 12 | 264 | 1.6 | 8.0 | 0.00 | 0.86 | 0.81 | 98 | 1007.1 |
| 20260510020704 | 12 | 100 | 0.0 | 4.8 | 0.00 | 0.86 | 0.81 | 98 | 1007.5 |
| 20260510020204 | 12 | 227 | 4.8 | 8.0 | 0.00 | 0.86 | 0.81 | 98 | 1007.5 |
| 20260510015704 | 12 | 169 | 0.0 | 8.0 | 0.00 | 0.86 | 0.81 | 98 | 1007.2 |
| 20260510015204 | 12 | 173 | 3.2 | 8.0 | 0.00 | 0.86 | 0.81 | 98 | 1007.1 |
| 20260510014704 | 12 | 245 | 0.0 | 0.0 | 0.00 | 0.86 | 0.81 | 98 | 1007.5 |
| 20260510014204 | 12 | 162 | 0.0 | 0.0 | 0.00 | 0.86 | 0.81 | 98 | 1007.5 |
| 20260510013704 | 12 | 177 | 0.0 | 0.0 | 0.00 | 0.86 | 0.81 | 98 | 1007.1 |
| 20260510013204 | 12 | 231 | 0.0 | 0.0 | 0.00 | 0.86 | 0.81 | 98 | 1007.4 |
| 20260510012705 | 12 | 226 | 0.0 | 0.0 | 0.00 | 0.86 | 0.81 | 98 | 1007.1 |
| 20260510012204 | 12 | 160 | 0.0 | 0.0 | 0.00 | 0.86 | 0.81 | 98 | 1007.1 |
| 20260510011705 | 12 | 194 | 0.0 | 4.8 | 0.00 | 0.86 | 0.81 | 98 | 1007.1 |
| 20260510011204 | 12 | 148 | 0.0 | 8.0 | 0.00 | 0.86 | 0.81 | 97 | 1007.1 |
| 20260510010704 | 12 | 260 | 3.2 | 9.7 | 0.00 | 0.86 | 0.81 | 97 | 1007.1 |
| 20260510010204 | 12 | 189 | 4.8 | 9.7 | 0.00 | 0.86 | 0.81 | 97 | 1006.8 |
| 20260510005704 | 12 | 253 | 4.8 | 9.7 | 0.00 | 0.86 | 0.81 | 98 | 1006.8 |
| 20260510005205 | 12 | 194 | 0.0 | 8.0 | 0.00 | 0.86 | 0.81 | 98 | 1007.1 |
| 20260510004704 | 12 | 249 | 3.2 | 8.0 | 0.00 | 0.89 | 0.81 | 98 | 1007.1 |
| 20260510004204 | 13 | 219 | 1.6 | 8.0 | 0.03 | 0.89 | 0.81 | 98 | 1006.8 |
| 20260510003704 | 13 | 257 | 6.4 | 9.7 | 0.03 | 0.89 | 0.81 | 99 | 1007.1 |
| 20260510003205 | 13 | 231 | 4.8 | 9.7 | 0.03 | 0.89 | 0.81 | 99 | 1006.8 |
| 20260510002704 | 13 | 273 | 4.8 | 9.7 | 0.08 | 0.91 | 0.81 | 99 | 1006.8 |
| 20260510002204 | 13 | 226 | 3.2 | 8.0 | 0.10 | 0.91 | 0.81 | 99 | 1006.8 |
| 20260510001705 | 13 | 250 | 0.0 | 3.2 | 0.13 | 0.91 | 0.81 | 99 | 1006.8 |
| 20260510000204 | 12 | 253 | 0.0 | 11.3 | 0.23 | 0.94 | 0.81 | 99 | 1006.8 |
| 20260509235705 | 12 | 253 | 8.0 | 12.9 | 0.43 | 0.94 | 0.81 | 99 | 1006.8 |
| 20260509235204 | 12 | 252 | 8.0 | 12.9 | 0.64 | 0.97 | 0.81 | 99 | 1006.8 |
| 20260509234704 | 12 | 273 | 8.0 | 12.9 | 0.71 | 0.97 | 0.81 | 99 | 1006.8 |
| 20260509233705 | 12 | 232 | 4.8 | 14.5 | 0.69 | 0.97 | 0.79 | 99 | 1006.8 |
| 20260509233204 | 12 | 302 | 4.8 | 14.5 | 0.69 | 0.99 | 0.79 | 99 | 1007.4 |
| 20260509231704 | 12 | 247 | 9.7 | 19.3 | 0.58 | 0.91 | 0.69 | 99 | 1006.4 |
| 20260509230704 | 12 | 320 | 11.3 | 37.0 | 0.53 | 0.89 | 0.64 | 98 | 1006.8 |
| 20260509225204 | 17 | 75 | 22.5 | 29.0 | 0.08 | 0.46 | 0.18 | 74 | 1004.4 |
| 20260509224204 | 20 | 237 | 9.7 | 19.3 | 0.00 | 0.41 | 0.10 | 59 | 1004.1 |
| 20260509223704 | 20 | 302 | 11.3 | 19.3 | 0.00 | 0.43 | 0.10 | 59 | 1003.7 |
| 20260509223204 | 20 | 248 | 9.7 | 16.1 | 0.00 | 0.43 | 0.10 | 59 | 1004.0 |
| 20260509222704 | 20 | 147 | 8.0 | 16.1 | 0.00 | 0.46 | 0.10 | 58 | 1004.4 |
| 20260509221704 | 20 | 209 | 9.7 | 20.9 | 0.00 | 0.46 | 0.10 | 58 | 1004.4 |
| 20260509221204 | 20 | 236 | 14.5 | 20.9 | 0.00 | 0.51 | 0.10 | 58 | 1004.1 |
| 20260509220704 | 20 | 191 | 11.3 | 20.9 | 0.00 | 0.51 | 0.10 | 58 | 1004.4 |
| 20260509220205 | 20 | 162 | 14.5 | 20.9 | 0.00 | 0.51 | 0.10 | 58 | 1004.1 |
| 20260509215704 | 20 | 280 | 11.3 | 33.8 | 0.00 | 0.51 | 0.10 | 57 | 1004.1 |
| 20260509215204 | 21 | 267 | 12.9 | 33.8 | 0.00 | 0.51 | 0.10 | 57 | 1004.1 |
| 20260509214704 | 21 | 196 | 16.1 | 33.8 | 0.00 | 0.51 | 0.10 | 57 | 1004.1 |
| 20260509213204 | 21 | 223 | 11.3 | 22.5 | 0.00 | 0.51 | 0.10 | 59 | 1004.1 |
| 20260509212704 | 21 | 254 | 12.9 | 20.9 | 0.00 | 0.51 | 0.10 | 58 | 1004.1 |
| 20260509211704 | 21 | 250 | 14.5 | 29.0 | 0.00 | 0.51 | 0.10 | 57 | 1004.1 |
| 20260509211204 | 21 | 181 | 12.9 | 29.0 | 0.00 | 0.51 | 0.10 | 59 | 1004.1 |
| 20260509210704 | 21 | 267 | 9.7 | 29.0 | 0.00 | 0.51 | 0.10 | 60 | 1004.4 |
| 20260509210204 | 21 | 163 | 9.7 | 29.0 | 0.00 | 0.51 | 0.10 | 60 | 1004.4 |
| 20260509205704 | 21 | 226 | 19.3 | 32.2 | 0.00 | 0.51 | 0.10 | 60 | 1004.4 |
| 20260509205204 | 21 | 232 | 14.5 | 32.2 | 0.00 | 0.51 | 0.10 | 60 | 1004.4 |
| 20260509204705 | 21 | 203 | 9.7 | 32.2 | 0.00 | 0.51 | 0.10 | 60 | 1004.7 |
| 20260509203705 | 21 | 270 | 16.1 | 29.0 | 0.00 | 0.51 | 0.10 | 59 | 1004.7 |
| 20260509203204 | 20 | 272 | 11.3 | 25.7 | 0.00 | 0.51 | 0.10 | 59 | 1004.7 |
| 20260509202704 | 20 | 250 | 14.5 | 25.7 | 0.00 | 0.51 | 0.10 | 60 | 1005.1 |
| 20260509202204 | 21 | 220 | 12.9 | 25.7 | 0.00 | 0.51 | 0.10 | 57 | 1005.1 |
| 20260509201205 | 21 | 178 | 16.1 | 22.5 | 0.00 | 0.51 | 0.10 | 54 | 1005.1 |
| 20260509200704 | 21 | 202 | 14.5 | 22.5 | 0.00 | 0.51 | 0.10 | 56 | 1005.1 |
| 20260509200203 | 21 | 222 | 12.9 | 22.5 | 0.00 | 0.51 | 0.10 | 54 | 1005.1 |
| 20260509195704 | 21 | 251 | 16.1 | 22.5 | 0.00 | 0.51 | 0.10 | 58 | 1005.1 |
| 20260509195204 | 22 | 206 | 11.3 | 25.7 | 0.00 | 0.51 | 0.10 | 57 | 1005.1 |
| 20260509194704 | 21 | 247 | 9.7 | 25.7 | 0.00 | 0.51 | 0.10 | 60 | 1005.4 |
| 20260509194204 | 21 | 253 | 16.1 | 25.7 | 0.00 | 0.51 | 0.10 | 60 | 1005.4 |
| 20260509193704 | 21 | 265 | 8.0 | 25.7 | 0.00 | 0.51 | 0.10 | 60 | 1005.4 |
| 20260509193204 | 21 | 304 | 11.3 | 25.7 | 0.00 | 0.51 | 0.10 | 59 | 1005.4 |
| 20260509192704 | 20 | 231 | 19.3 | 24.1 | 0.00 | 0.51 | 0.10 | 61 | 1005.8 |
| 20260509192204 | 20 | 275 | 11.3 | 24.1 | 0.00 | 0.51 | 0.10 | 62 | 1005.8 |
| 20260509191204 | 20 | 228 | 9.7 | 24.1 | 0.00 | 0.51 | 0.10 | 63 | 1006.1 |
| 20260509190704 | 19 | 249 | 14.5 | 24.1 | 0.00 | 0.51 | 0.10 | 61 | 1006.1 |
| 20260509190204 | 20 | 296 | 14.5 | 20.9 | 0.00 | 0.51 | 0.10 | 63 | 1006.1 |
| 20260509185704 | 20 | 256 | 9.7 | 20.9 | 0.00 | 0.51 | 0.10 | 62 | 1006.1 |
| 20260509185204 | 19 | 267 | 12.9 | 20.9 | 0.00 | 0.51 | 0.10 | 63 | 1006.1 |
| 20260509184704 | 20 | 201 | 9.7 | 19.3 | 0.00 | 0.51 | 0.10 | 64 | 1006.4 |
| 20260509184204 | 19 | 261 | 9.7 | 22.5 | 0.00 | 0.51 | 0.10 | 64 | 1006.1 |
| 20260509183704 | 19 | 248 | 12.9 | 29.0 | 0.00 | 0.51 | 0.10 | 61 | 1006.4 |
| 20260509183203 | 20 | 197 | 16.1 | 29.0 | 0.00 | 0.51 | 0.10 | 60 | 1006.2 |
| 20260509182704 | 20 | 196 | 14.5 | 29.0 | 0.00 | 0.51 | 0.10 | 58 | 1006.1 |
| 20260509181704 | 21 | 189 | 16.1 | 27.4 | 0.00 | 0.51 | 0.10 | 60 | 1006.1 |
| 20260509180704 | 20 | 192 | 16.1 | 22.5 | 0.00 | 0.51 | 0.10 | 64 | 1006.1 |
| 20260509180204 | 19 | 244 | 11.3 | 22.5 | 0.00 | 0.51 | 0.10 | 65 | 1006.4 |
| 20260509175704 | 19 | 225 | 14.5 | 24.1 | 0.00 | 0.51 | 0.10 | 63 | 1006.4 |
| 20260509175204 | 18 | 209 | 9.7 | 24.1 | 0.00 | 0.51 | 0.10 | 64 | 1006.4 |
| 20260509174704 | 19 | 237 | 12.9 | 24.1 | 0.00 | 0.51 | 0.10 | 64 | 1006.4 |
| 20260509174204 | 19 | 271 | 9.7 | 24.1 | 0.00 | 0.51 | 0.10 | 63 | 1006.4 |
| 20260509173704 | 19 | 260 | 14.5 | 24.1 | 0.00 | 0.51 | 0.10 | 64 | 1006.4 |
| 20260509172704 | 19 | 156 | 11.3 | 14.5 | 0.00 | 0.51 | 0.10 | 65 | 1006.4 |
| 20260509172204 | 18 | 226 | 4.8 | 14.5 | 0.00 | 0.53 | 0.10 | 68 | 1006.4 |
| 20260509171704 | 18 | 217 | 14.5 | 16.1 | 0.00 | 0.53 | 0.10 | 68 | 1006.4 |
| 20260509171204 | 18 | 260 | 11.3 | 16.1 | 0.00 | 0.53 | 0.10 | 68 | 1006.4 |
| 20260509170704 | 18 | 233 | 6.4 | 16.1 | 0.00 | 0.53 | 0.10 | 68 | 1006.4 |
| 20260509170204 | 18 | 213 | 9.7 | 19.3 | 0.00 | 0.53 | 0.10 | 69 | 1006.4 |
| 20260509165704 | 18 | 204 | 11.3 | 19.3 | 0.00 | 0.53 | 0.10 | 68 | 1006.4 |
| 20260509165204 | 18 | 196 | 14.5 | 19.3 | 0.00 | 0.53 | 0.10 | 70 | 1006.1 |
| 20260509164705 | 18 | 182 | 16.1 | 19.3 | 0.00 | 0.53 | 0.10 | 68 | 1006.4 |
| 20260509164205 | 17 | 117 | 11.3 | 19.3 | 0.00 | 0.53 | 0.10 | 73 | 1006.4 |
| 20260509163705 | 17 | 246 | 9.7 | 19.3 | 0.00 | 0.53 | 0.10 | 70 | 1006.4 |
| 20260509162705 | 17 | 212 | 14.5 | 19.3 | 0.00 | 0.53 | 0.10 | 68 | 1006.8 |
| 20260509162205 | 18 | 245 | 8.0 | 20.9 | 0.00 | 0.53 | 0.10 | 72 | 1006.8 |
| 20260509161704 | 18 | 255 | 9.7 | 20.9 | 0.00 | 0.53 | 0.10 | 69 | 1006.8 |
| 20260509161205 | 17 | 153 | 9.7 | 20.9 | 0.00 | 0.53 | 0.10 | 73 | 1007.1 |
| 20260509160704 | 17 | 209 | 11.3 | 19.3 | 0.00 | 0.53 | 0.10 | 75 | 1007.1 |
| 20260509160205 | 17 | 106 | 8.0 | 16.1 | 0.00 | 0.53 | 0.10 | 75 | 1007.1 |
| 20260509155704 | 16 | 285 | 9.7 | 16.1 | 0.00 | 0.53 | 0.10 | 76 | 1007.1 |
| 20260509155205 | 16 | 268 | 12.9 | 16.1 | 0.00 | 0.53 | 0.10 | 80 | 1007.1 |
| 20260509154705 | 15 | 282 | 8.0 | 16.1 | 0.00 | 0.53 | 0.10 | 81 | 1007.1 |
| 20260509154204 | 16 | 245 | 9.7 | 16.1 | 0.00 | 0.53 | 0.10 | 80 | 1007.1 |
| 20260509153705 | 16 | 260 | 14.5 | 16.1 | 0.00 | 0.53 | 0.10 | 80 | 1007.1 |
| 20260509153205 | 16 | 247 | 8.0 | 12.9 | 0.00 | 0.53 | 0.10 | 80 | 1007.1 |
| 20260509152705 | 16 | 243 | 8.0 | 12.9 | 0.00 | 0.53 | 0.10 | 81 | 1007.1 |
| 20260509152205 | 16 | 281 | 4.8 | 12.9 | 0.00 | 0.53 | 0.10 | 85 | 1007.1 |
| 20260509151704 | 15 | 307 | 4.8 | 14.5 | 0.00 | 0.53 | 0.10 | 86 | 1007.1 |
| 20260509151205 | 14 | 274 | 11.3 | 14.5 | 0.00 | 0.53 | 0.10 | 87 | 1007.1 |
| 20260509145705 | 14 | 165 | 8.0 | 12.9 | 0.00 | 0.53 | 0.10 | 89 | 1007.1 |
| 20260509145205 | 14 | 225 | 11.3 | 12.9 | 0.00 | 0.53 | 0.10 | 90 | 1007.1 |
| 20260509144705 | 14 | 200 | 8.0 | 14.5 | 0.00 | 0.53 | 0.10 | 91 | 1007.1 |
| 20260509144204 | 13 | 243 | 9.7 | 16.1 | 0.00 | 0.53 | 0.10 | 90 | 1007.1 |
| 20260509143705 | 13 | 255 | 9.7 | 16.1 | 0.00 | 0.53 | 0.10 | 90 | 1007.1 |
| 20260509143204 | 13 | 272 | 6.4 | 16.1 | 0.00 | 0.53 | 0.10 | 92 | 1007.1 |
| 20260509142704 | 13 | 263 | 8.0 | 14.5 | 0.00 | 0.53 | 0.10 | 92 | 1007.1 |
| 20260509141705 | 13 | 255 | 6.4 | 12.9 | 0.00 | 0.53 | 0.10 | 94 | 1007.1 |
| 20260509141204 | 13 | 252 | 4.8 | 12.9 | 0.00 | 0.53 | 0.10 | 95 | 1007.1 |
| 20260509140204 | 13 | 249 | 8.0 | 12.9 | 0.00 | 0.53 | 0.10 | 95 | 1007.1 |
| 20260509135704 | 13 | 199 | 3.2 | 16.1 | 0.00 | 0.53 | 0.10 | 96 | 1007.1 |
| 20260509134704 | 12 | 237 | 9.7 | 16.1 | 0.00 | 0.53 | 0.10 | 97 | 1007.1 |
| 20260509134204 | 12 | 9 | 4.8 | 14.5 | 0.00 | 0.53 | 0.10 | 99 | 1007.1 |
| 20260509133704 | 12 | 166 | 6.4 | 12.9 | 0.00 | 0.53 | 0.10 | 99 | 1007.1 |
| 20260509133205 | 12 | 212 | 8.0 | 12.9 | 0.00 | 0.53 | 0.10 | 99 | 1007.1 |
| 20260509132705 | 12 | 226 | 3.2 | 9.7 | 0.00 | 0.53 | 0.10 | 99 | 1007.1 |
| 20260509131705 | 12 | 200 | 1.6 | 11.3 | 0.00 | 0.53 | 0.10 | 99 | 1007.1 |
| 20260509131205 | 12 | 239 | 3.2 | 11.3 | 0.00 | 0.56 | 0.10 | 99 | 1007.1 |
| 20260509130704 | 12 | 253 | 3.2 | 11.3 | 0.00 | 0.56 | 0.10 | 99 | 1007.1 |
| 20260509125705 | 12 | 164 | 0.0 | 9.7 | 0.00 | 0.58 | 0.10 | 99 | 1007.1 |
| 20260509125204 | 12 | 179 | 1.6 | 9.7 | 0.00 | 0.58 | 0.10 | 99 | 1007.1 |
| 20260509124704 | 12 | 194 | 1.6 | 11.3 | 0.00 | 0.58 | 0.10 | 99 | 1007.5 |
| 20260509124204 | 12 | 230 | 3.2 | 12.9 | 0.00 | 0.58 | 0.10 | 99 | 1007.5 |
| 20260509123704 | 12 | 252 | 3.2 | 12.9 | 0.00 | 0.58 | 0.10 | 99 | 1007.5 |
| 20260509123204 | 12 | 153 | 9.7 | 12.9 | 0.00 | 0.58 | 0.10 | 99 | 1007.5 |
| 20260509122704 | 12 | 227 | 3.2 | 9.7 | 0.00 | 0.58 | 0.10 | 99 | 1007.5 |
| 20260509122205 | 12 | 184 | 0.0 | 9.7 | 0.00 | 0.58 | 0.10 | 99 | 1007.5 |
| 20260509121704 | 11 | 237 | 4.8 | 8.0 | 0.00 | 0.58 | 0.10 | 99 | 1007.5 |
| 20260509120704 | 11 | 249 | 0.0 | 4.8 | 0.00 | 0.58 | 0.10 | 99 | 1007.5 |
| 20260509120204 | 11 | 268 | 1.6 | 4.8 | 0.00 | 0.58 | 0.10 | 99 | 1007.5 |
| 20260509115704 | 11 | 189 | 1.6 | 4.8 | 0.00 | 0.58 | 0.10 | 99 | 1007.5 |
| 20260509115205 | 11 | 225 | 0.0 | 4.8 | 0.00 | 0.58 | 0.10 | 99 | 1007.5 |
| 20260509114705 | 11 | 152 | 0.0 | 4.8 | 0.00 | 0.58 | 0.10 | 99 | 1007.7 |
| 20260509114205 | 11 | 206 | 0.0 | 4.8 | 0.00 | 0.58 | 0.10 | 99 | 1007.5 |
| 20260509113704 | 11 | 320 | 0.0 | 9.7 | 0.00 | 0.58 | 0.10 | 99 | 1007.5 |
| 20260509113204 | 11 | 134 | 0.0 | 9.7 | 0.00 | 0.58 | 0.10 | 99 | 1007.5 |
| 20260509112704 | 11 | 162 | 1.6 | 9.7 | 0.00 | 0.58 | 0.10 | 99 | 1007.5 |
| 20260509111704 | 11 | 192 | 0.0 | 1.6 | 0.00 | 0.58 | 0.10 | 99 | 1007.5 |
| 20260509111204 | 11 | 160 | 0.0 | 4.8 | 0.00 | 0.58 | 0.10 | 99 | 1007.5 |
| 20260509110704 | 11 | 170 | 0.0 | 4.8 | 0.00 | 0.58 | 0.10 | 99 | 1007.5 |
| 20260509110204 | 11 | 179 | 1.6 | 4.8 | 0.00 | 0.58 | 0.10 | 99 | 1007.5 |
| 20260509105704 | 11 | 172 | 0.0 | 0.0 | 0.00 | 0.58 | 0.10 | 99 | 1007.5 |
| 20260509105205 | 11 | 149 | 0.0 | 0.0 | 0.00 | 0.58 | 0.10 | 99 | 1007.5 |
| 20260509104704 | 11 | 140 | 0.0 | 3.2 | 0.00 | 0.58 | 0.10 | 99 | 1007.1 |
| 20260509104204 | 11 | 167 | 0.0 | 3.2 | 0.00 | 0.58 | 0.10 | 99 | 1007.1 |
| 20260509103704 | 11 | 161 | 1.6 | 3.2 | 0.00 | 0.58 | 0.10 | 99 | 1007.1 |
| 20260509103204 | 11 | 159 | 0.0 | 4.8 | 0.00 | 0.58 | 0.10 | 99 | 1007.5 |
| 20260509102704 | 11 | 141 | 0.0 | 4.8 | 0.00 | 0.58 | 0.10 | 99 | 1007.1 |
| 20260509102204 | 11 | 168 | 0.0 | 4.8 | 0.00 | 0.58 | 0.10 | 99 | 1007.1 |
| 20260509101704 | 11 | 160 | 0.0 | 4.8 | 0.00 | 0.58 | 0.10 | 99 | 1007.1 |
| 20260509101204 | 11 | 118 | 0.0 | 4.8 | 0.00 | 0.58 | 0.10 | 99 | 1007.4 |
| 20260509100704 | 11 | 181 | 3.2 | 4.8 | 0.00 | 0.58 | 0.10 | 99 | 1007.5 |
| 20260509100204 | 11 | 162 | 3.2 | 4.8 | 0.00 | 0.58 | 0.10 | 99 | 1007.5 |
| 20260509095704 | 11 | 162 | 4.8 | 4.8 | 0.00 | 0.58 | 0.10 | 99 | 1007.5 |
| 20260509095204 | 11 | 152 | 0.0 | 4.8 | 0.00 | 0.58 | 0.10 | 99 | 1007.5 |
| 20260509094704 | 11 | 162 | 0.0 | 8.0 | 0.00 | 0.58 | 0.10 | 99 | 1007.5 |
| 20260509094205 | 11 | 163 | 1.6 | 8.0 | 0.00 | 0.58 | 0.10 | 99 | 1007.5 |
| 20260509093704 | 11 | 148 | 0.0 | 9.7 | 0.00 | 0.58 | 0.10 | 99 | 1007.5 |
| 20260509093204 | 11 | 172 | 1.6 | 9.7 | 0.00 | 0.58 | 0.10 | 99 | 1007.5 |
| 20260509091704 | 11 | 156 | 0.0 | 8.0 | 0.00 | 0.58 | 0.10 | 99 | 1007.8 |
| 20260509091204 | 11 | 198 | 3.2 | 8.0 | 0.00 | 0.58 | 0.10 | 99 | 1007.8 |
| 20260509090704 | 11 | 213 | 1.6 | 9.7 | 0.00 | 0.58 | 0.10 | 99 | 1007.8 |
| 20260509085204 | 11 | 199 | 1.6 | 9.7 | 0.00 | 0.58 | 0.10 | 99 | 1007.8 |
| 20260509084705 | 11 | 171 | 3.2 | 4.8 | 0.00 | 0.58 | 0.10 | 99 | 1007.8 |
| 20260509084204 | 11 | 216 | 1.6 | 4.8 | 0.00 | 0.58 | 0.10 | 99 | 1008.1 |
| 20260509083705 | 10 | 159 | 0.0 | 4.8 | 0.00 | 0.58 | 0.10 | 99 | 1007.8 |
| 20260509082704 | 10 | 166 | 3.2 | 8.0 | 0.00 | 0.58 | 0.10 | 99 | 1007.8 |
| 20260509082205 | 10 | 175 | 4.8 | 12.9 | 0.00 | 0.58 | 0.10 | 99 | 1007.8 |